TimeCST,TemperatureF,Dew PointF,Humidity,Sea Level PressureIn,VisibilityMPH,Wind Direction,Wind SpeedMPH,Gust SpeedMPH,PrecipitationIn,Events,Conditions,WindDirDegrees,DateUTC
12:54 AM,37.0,28.9,73,30.24,10.0,SSW,10.4,-,N/A,,Clear,200,2013-12-28 06:54:00
1:54 AM,35.1,28.0,76,30.23,10.0,SW,10.4,-,N/A,,Clear,220,2013-12-28 07:54:00
2:54 AM,36.0,28.0,73,30.22,10.0,SSW,10.4,-,N/A,,Clear,210,2013-12-28 08:54:00
3:54 AM,35.1,27.0,72,30.20,10.0,SSW,8.1,-,N/A,,Clear,210,2013-12-28 09:54:00
4:54 AM,34.0,26.1,73,30.19,10.0,SSW,8.1,-,N/A,,Clear,210,2013-12-28 10:54:00
5:54 AM,35.1,26.1,70,30.19,10.0,South,3.5,-,N/A,,Clear,190,2013-12-28 11:54:00
6:54 AM,32.0,25.0,75,30.19,10.0,SSW,9.2,-,N/A,,Clear,200,2013-12-28 12:54:00
7:54 AM,32.0,26.1,79,30.18,10.0,South,9.2,-,N/A,,Clear,190,2013-12-28 13:54:00
8:54 AM,39.0,30.0,70,30.18,10.0,SSW,9.2,-,N/A,,Clear,200,2013-12-28 14:54:00
9:54 AM,44.1,30.9,60,30.16,10.0,SW,9.2,-,N/A,,Clear,220,2013-12-28 15:54:00
10:54 AM,48.0,30.9,52,30.14,10.0,SSW,15.0,-,N/A,,Clear,210,2013-12-28 16:54:00
11:54 AM,52.0,32.0,47,30.10,10.0,SSW,11.5,-,N/A,,Clear,200,2013-12-28 17:54:00
12:54 PM,54.0,32.0,43,30.06,10.0,SSW,12.7,-,N/A,,Clear,210,2013-12-28 18:54:00
1:54 PM,52.0,28.9,41,30.04,10.0,SSW,15.0,-,N/A,,Clear,200,2013-12-28 19:54:00
2:54 PM,53.1,28.9,40,30.00,10.0,SSW,11.5,-,N/A,,Clear,210,2013-12-28 20:54:00
3:54 PM,51.1,28.9,43,29.99,10.0,South,6.9,-,N/A,,Clear,190,2013-12-28 21:54:00
4:54 PM,46.9,28.9,50,29.97,10.0,South,6.9,-,N/A,,Clear,170,2013-12-28 22:54:00
5:54 PM,46.0,27.0,47,29.95,10.0,South,6.9,-,N/A,,Clear,180,2013-12-28 23:54:00
6:54 PM,44.1,27.0,51,29.96,10.0,South,8.1,-,N/A,,Clear,180,2013-12-29 00:54:00
7:54 PM,43.0,28.0,56,29.95,10.0,South,6.9,-,N/A,,Clear,180,2013-12-29 01:54:00
8:54 PM,44.1,27.0,51,29.93,10.0,South,9.2,-,N/A,,Clear,180,2013-12-29 02:54:00
9:54 PM,42.1,26.1,53,29.93,10.0,SSW,6.9,-,N/A,,Clear,200,2013-12-29 03:54:00
10:54 PM,41.0,26.1,55,29.92,10.0,SSW,6.9,-,N/A,,Clear,200,2013-12-29 04:54:00
11:54 PM,39.0,26.1,60,29.91,10.0,South,6.9,-,N/A,,Clear,190,2013-12-29 05:54:00